Location: Saint-Rémy-en-Mauges
(47.2685°N, 1.0792°W)
Time: 22:27:30
(UTC+02:00)

ISS - Visible Passes

Search period start: 22 June 2025 00:00
Search period end: 02 July 2025 00:00
Orbit: 415 x 417 km, 51.6° (Epoch: 22 June)

Date Brightness Start Highest point End Pass type
(mag) Time Alt. Az. Time Alt. Az. Time Alt. Az.
23 Jun -2.7 05:19:08 10° SSW 05:22:11 34° SE 05:25:16 10° ENE visible
24 Jun -2.1 04:32:08 16° S 04:33:45 22° SE 04:36:25 10° E visible
25 Jun -1.5 03:45:15 14° SE 03:45:22 14° SE 03:47:11 10° ESE visible
25 Jun -3.7 05:18:16 10° WSW 05:21:37 75° SSE 05:24:59 10° ENE visible
26 Jun -3.4 04:31:11 22° SSW 04:33:03 49° SSE 04:36:19 10° ENE visible
27 Jun -2.8 03:44:10 30° SSE 03:44:31 31° SE 03:47:32 10° E visible
27 Jun -3.3 05:17:48 10° W 05:21:07 59° NNW 05:24:27 10° ENE visible
28 Jun -1.7 02:57:06 17° ESE 02:57:06 17° ESE 02:58:34 10° E visible
28 Jun -3.7 04:29:58 17° WSW 04:32:25 81° NNW 04:35:48 10° ENE visible
29 Jun -3.8 03:42:49 43° SW 03:43:46 70° SSE 03:47:06 10° ENE visible
29 Jun -2.5 05:17:27 10° W 05:20:39 41° N 05:23:52 10° ENE visible
30 Jun -3.1 02:55:37 41° ESE 02:55:37 41° ESE 02:58:21 10° ENE visible
30 Jun -2.9 04:28:35 10° W 04:31:52 49° NNW 04:35:08 10° ENE visible
01 Jul -1.7 02:08:21 18° E 02:08:21 18° E 02:09:29 10° E visible
01 Jul -3.4 03:41:11 23° W 03:43:05 62° NNW 03:46:26 10° ENE visible
01 Jul -2.2 05:17:00 10° WNW 05:20:10 37° N 05:23:20 10° ENE visible
